Temp
14 14 14 14 14 14 13 13 13 13 13 13 13 13 12 12 12 12 12 12 12 12 12 11 11 11 11 11 11 11 11 11 11 11 11 11 11 11 11 11 11 11
14 14 14 14 14 14 13 13 13 13 13 13 13 13 13 13 12 12 12 12 12 12 12 12 12 12 11 11 11 11 11 11 11 11 11 11 11 11 11 11 11 11
14 13 14 14 14 14 13 13 13 13 13 13 13 13 13 13 13 12 12 12 12 12 12 12 12 12 12 11 11 11 11 11 11 11 11 11 11 11 11 11 11 11
14 13 14 14 14 14 13 13 13 13 13 13 13 13 13 13 13 13 12 12 12 12 12 12 12 12 12 12 12 12 12 12 12 11 11 11 11 11 11 11 11 11
14 14 14 14 14 14 13 13 13 13 13 13 13 13 14 13 13 13 13 13 12 12 12 12 12 12 12 12 12 12 12 12 12 12 12 12 12 11 12 11 11 11
14 14 14 14 14 14 13 13 13 13 13 13 13 13 13 13 13 13 13 13 13 12 12 12 12 12 12 12 12 12 12 12 12 12 12 12 12 12 12 12 11 11
14 14 14 14 14 14 14 13 13 13 13 13 13 13 13 13 13 13 13 12 12 12 12 12 12 12 12 12 12 12 12 12 12 12 12 12 12 12 11 11 11 11
14 14 14 14 14 14 14 14 13 13 13 13 13 13 13 13 13 13 13 12 12 12 12 12 12 12 11 11 11 11 11 11 11 11 11 11 11 11 11 11 11 11
14 14 14 14 14 14 14 14 14 13 13 13 13 13 13 13 13 12 12 12 12 12 12 12 12 12 12 12 11 11 11 11 11 11 11 11 11 11 11 11 11 11
14 14 14 14 14 14 14 14 13 13 13 13 13 13 13 13 13 12 12 12 12 12 12 12 12 12 12 12 12 11 11 11 10 10 10 11 11 11 11 11 11 10
14 14 14 13 13 13 13 13 13 12 12 13 13 13 13 12 12 12 12 12 12 12 12 12 12 12 13 13 12 12 11 11 10 10 10 10 10 10 10 10 10 10
14 13 13 13 13 12 12 12 12 12 12 12 12 12 12 12 12 12 12 12 12 12 12 12 12 12 12 12 12 12 11 11 10 10 10 10 10 10 10 10 10 10
13 13 13 13 13 12 12 11 11 11 11 11 11 11 12 12 12 11 12 12 12 12 12 12 12 12 12 12 12 12 11 11 10 10 10 10 10 10 10 10 10 10
14 13 13 13 12 11 11 11 11 10 10 11 11 10 10 11 11 11 11 11 12 12 12 12 12 12 12 11 11 11 11 11 11 10 10 9 10 10 10 9 9 9
13 13 13 13 12 11 10 10 10 11 10 10 10 10 10 11 11 11 10 11 11 11 11 11 11 11 11 11 11 11 11 11 11 11 10 9 9 10 9 9 9 9
13 12 12 12 12 11 11 10 11 11 11 10 11 11 11 11 11 11 10 11 11 11 11 11 11 11 11 11 11 11 11 11 11 11 10 10 9 9 9 9 9 9
12 12 12 11 11 11 11 11 11 11 11 11 11 11 11 11 11 11 11 11 11 11 11 11 11 11 11 11 11 10 10 10 10 10 10 10 10 10 10 10 9 9
12 12 12 11 11 11 11 11 11 11 11 11 11 11 11 11 11 11 11 11 11 11 11 10 10 10 11 11 10 10 10 10 10 10 10 10 10 10 10 9 9 9
11 11 11 11 11 11 11 11 11 11 11 11 11 11 11 11 11 11 11 11 10 10 10 10 10 10 10 10 10 10 10 10 10 10 10 10 10 10 10 9 9 9
11 11 11 11 11 11 11 11 11 11 11 11 11 11 11 11 10 10 10 10 10 10 10 10 10 10 10 10 10 10 10 10 10 10 10 10 10 9 9 9 9 9
10 10 11 11 11 10 10 10 10 10 10 10 10 10 10 10 10 10 10 9 9 9 10 9 9 9 10 10 10 10 10 10 10 10 10 9 9 9 9 9 8 8
10 10 10 10 10 10 10 10 10 10 10 10 10 10 10 10 10 10 10 10 9 9 9 9 9 9 9 10 10 10 10 10 9 9 9 9 9 8 8 8 7 7
10 10 10 10 10 10 10 10 10 10 10 10 10 10 10 10 10 9 9 10 10 9 9 9 9 9 9 9 9 9 10 9 9 9 8 8 8 8 8 7 7 7
9 9 9 9 9 9 9 10 10 9 9 9 9 9 9 9 9 9 9 9 9 9 9 9 8 8 8 8 8 9 9 9 8 8 7 7 7 7 7 7 7 7
9 9 9 9 9 9 9 9 9 9 9 9 9 9 9 9 9 9 9 9 9 8 8 8 8 8 8 8 8 8 8 8 7 7 7 7 7 7 7 7 6 6
9 9 9 8 8 8 8 8 8 9 9 9 9 9 9 9 9 8 8 8 8 8 8 8 8 8 8 8 7 7 7 7 7 6 6 6 6 6 6 6 6 6
Height
1528 1529 1530 1531 1531 1532 1533 1533 1533 1533 1533 1534 1535 1536 1537 1537 1537 1538 1538 1539 1539 1539 1539 1540 1541 1542 1542 1543 1543 1544 1544 1545 1545 1545 1545 1546 1546 1546 1547 1547 1547 1548
1528 1528 1529 1530 1531 1532 1532 1533 1533 1532 1533 1534 1535 1536 1537 1537 1538 1538 1539 1539 1539 1539 1540 1540 1541 1542 1542 1543 1544 1544 1545 1545 1546 1546 1546 1546 1546 1547 1547 1548 1548 1548
1527 1528 1529 1530 1531 1531 1532 1533 1533 1533 1533 1533 1534 1535 1536 1537 1538 1539 1539 1540 1540 1540 1540 1541 1541 1542 1543 1543 1544 1545 1545 1546 1546 1546 1547 1547 1547 1547 1548 1548 1549 1549
1527 1528 1529 1530 1531 1532 1532 1532 1533 1533 1533 1533 1534 1534 1535 1536 1538 1538 1539 1540 1540 1541 1541 1541 1542 1542 1543 1544 1544 1545 1546 1546 1547 1547 1548 1548 1548 1548 1549 1549 1549 1550
1527 1527 1529 1530 1531 1531 1532 1532 1532 1533 1533 1533 1533 1534 1534 1535 1536 1537 1538 1539 1540 1541 1541 1542 1542 1542 1543 1544 1545 1546 1546 1547 1548 1548 1549 1549 1549 1549 1550 1550 1550 1550
1525 1525 1526 1528 1529 1530 1531 1531 1532 1532 1532 1533 1533 1533 1533 1534 1535 1536 1537 1538 1539 1540 1541 1541 1542 1543 1543 1544 1545 1546 1546 1547 1548 1549 1549 1550 1550 1550 1550 1550 1551 1551
1523 1522 1523 1525 1527 1528 1529 1530 1531 1531 1532 1532 1532 1532 1532 1533 1534 1535 1536 1537 1538 1539 1540 1541 1542 1542 1543 1543 1544 1545 1546 1547 1548 1548 1549 1550 1550 1551 1551 1550 1551 1551
1520 1520 1521 1523 1524 1525 1527 1528 1530 1530 1531 1531 1531 1531 1532 1532 1533 1534 1535 1536 1537 1538 1539 1540 1541 1541 1542 1543 1544 1545 1546 1546 1547 1548 1549 1549 1550 1550 1550 1550 1550 1550
1517 1518 1519 1520 1522 1523 1524 1525 1528 1530 1530 1530 1530 1531 1531 1532 1532 1533 1534 1535 1536 1537 1538 1539 1540 1540 1541 1542 1543 1544 1544 1545 1546 1547 1548 1548 1549 1549 1550 1550 1550 1550
1515 1516 1517 1519 1520 1520 1521 1523 1526 1529 1529 1529 1530 1530 1530 1531 1532 1533 1534 1534 1535 1536 1537 1537 1538 1539 1540 1541 1541 1542 1543 1544 1545 1546 1546 1547 1548 1548 1549 1549 1549 1549
1513 1515 1516 1516 1517 1518 1520 1522 1524 1526 1528 1529 1529 1529 1530 1530 1531 1532 1533 1534 1535 1535 1536 1536 1536 1537 1538 1539 1539 1539 1540 1541 1542 1544 1545 1546 1546 1547 1547 1548 1548 1548
1512 1514 1515 1514 1515 1517 1519 1522 1523 1525 1527 1528 1528 1528 1529 1530 1531 1532 1532 1533 1534 1534 1535 1535 1535 1536 1536 1536 1537 1537 1538 1539 1540 1541 1542 1544 1545 1545 1546 1546 1546 1547
1509 1512 1512 1513 1514 1516 1518 1522 1525 1528 1529 1528 1527 1528 1529 1530 1532 1533 1533 1533 1533 1534 1534 1534 1534 1534 1534 1535 1535 1535 1535 1536 1537 1539 1540 1541 1542 1543 1544 1544 1544 1545
1508 1510 1511 1512 1514 1516 1519 1521 1525 1528 1530 1529 1528 1528 1530 1531 1532 1533 1534 1534 1533 1533 1533 1533 1533 1534 1533 1534 1534 1534 1534 1535 1535 1537 1538 1539 1540 1541 1541 1542 1542 1543
1507 1509 1510 1511 1512 1516 1521 1522 1523 1524 1526 1527 1527 1528 1529 1529 1530 1531 1532 1533 1532 1532 1532 1533 1533 1533 1533 1533 1533 1533 1533 1534 1534 1535 1535 1536 1537 1538 1539 1540 1540 1540
1507 1507 1508 1511 1514 1516 1519 1521 1521 1521 1521 1523 1524 1525 1526 1526 1527 1528 1529 1530 1531 1531 1531 1532 1532 1532 1532 1532 1532 1532 1533 1533 1533 1533 1533 1534 1535 1536 1536 1537 1538 1538
1506 1506 1507 1511 1515 1515 1516 1518 1519 1520 1520 1522 1522 1523 1524 1525 1526 1527 1527 1528 1529 1529 1530 1530 1530 1530 1530 1530 1530 1530 1531 1531 1531 1531 1531 1532 1532 1533 1534 1535 1536 1536
1505 1506 1508 1511 1513 1514 1516 1517 1518 1519 1520 1521 1521 1522 1523 1524 1524 1525 1526 1526 1527 1527 1527 1527 1527 1527 1527 1527 1527 1528 1528 1528 1528 1529 1529 1529 1529 1530 1531 1533 1534 1534
1504 1505 1507 1510 1512 1513 1515 1516 1517 1518 1518 1519 1520 1521 1521 1522 1523 1523 1523 1524 1524 1525 1525 1525 1525 1525 1525 1525 1525 1525 1526 1526 1526 1526 1526 1526 1527 1527 1528 1530 1530 1530
1504 1506 1507 1509 1511 1512 1513 1514 1515 1516 1517 1518 1518 1519 1519 1520 1521 1521 1522 1522 1523 1523 1523 1523 1523 1523 1523 1523 1523 1523 1523 1523 1523 1524 1523 1524 1524 1524 1525 1527 1527 1528
1504 1506 1507 1508 1509 1510 1511 1512 1513 1514 1515 1516 1517 1518 1518 1519 1519 1520 1520 1521 1521 1521 1522 1522 1522 1522 1521 1521 1521 1521 1521 1521 1521 1521 1521 1521 1521 1522 1523 1524 1525 1526
1504 1505 1506 1507 1508 1509 1510 1511 1512 1513 1514 1515 1516 1516 1517 1518 1518 1519 1519 1519 1520 1520 1520 1520 1520 1520 1520 1519 1519 1518 1518 1518 1518 1519 1519 1519 1519 1520 1521 1523 1524 1525
1503 1504 1505 1506 1507 1508 1509 1510 1510 1511 1512 1513 1514 1515 1516 1516 1517 1517 1517 1518 1518 1518 1518 1518 1518 1518 1518 1518 1517 1517 1516 1516 1516 1517 1517 1518 1518 1519 1520 1521 1522 1523
1503 1503 1504 1505 1505 1507 1508 1508 1509 1510 1511 1512 1512 1513 1514 1514 1515 1516 1516 1517 1517 1517 1517 1517 1517 1517 1517 1517 1516 1516 1516 1515 1515 1515 1516 1516 1517 1517 1518 1519 1520 1520
1502 1502 1503 1503 1504 1505 1506 1507 1508 1509 1510 1510 1511 1511 1512 1513 1514 1515 1515 1515 1516 1516 1516 1516 1516 1516 1516 1516 1516 1515 1515 1515 1515 1515 1515 1516 1516 1517 1517 1518 1518 1519
1501 1502 1502 1503 1503 1504 1505 1506 1507 1508 1508 1509 1510 1510 1511 1511 1512 1513 1514 1514 1515 1515 1515 1515 1514 1514 1514 1514 1514 1514 1515 1515 1514 1514 1515 1515 1515 1516 1516 1517 1517 1517
Wind_Speed
16 17 17 14 14 14 15 17 17 16 17 17 16 15 14 13 12 11 10 9 9 8 8 8 8 8 8 8 7 7 6 5 5 5 4 3 3 3 2 1 1 0
18 20 21 17 16 16 16 18 19 19 19 18 16 16 14 13 12 11 11 10 9 8 8 8 8 9 8 7 6 5 5 5 5 5 5 4 4 4 4 3 2 1
20 23 26 20 18 19 17 18 19 19 18 17 16 15 14 13 12 11 11 10 9 8 8 7 8 8 7 6 5 4 5 5 5 5 5 5 5 5 5 4 4 3
21 23 28 23 18 19 19 19 19 18 17 17 15 14 13 12 11 10 10 9 8 8 7 7 6 6 6 5 4 4 5 5 5 5 5 5 5 5 4 4 4 3
23 21 28 27 20 19 21 20 19 18 17 16 14 13 13 12 10 9 8 8 7 7 7 6 5 5 4 4 4 3 3 4 4 4 3 3 3 3 3 3 3 2
27 22 29 32 23 20 21 20 20 19 18 15 14 12 11 11 9 7 7 6 6 5 5 4 4 3 2 2 2 2 2 2 3 2 2 2 1 0 0 0 0 0
30 24 28 33 28 22 22 21 21 21 19 17 14 11 10 10 8 7 6 6 5 4 4 4 4 4 3 3 3 3 3 3 4 4 3 2 3 3 3 3 3 3
31 27 28 33 32 27 24 23 24 23 21 19 16 13 10 9 8 7 6 5 4 3 3 4 4 4 3 3 4 4 5 6 7 7 6 6 6 5 5 5 6 6
31 29 29 32 32 30 29 29 28 27 25 22 18 15 11 10 9 8 8 7 5 5 4 4 2 0 1 3 4 4 5 6 8 9 9 9 9 9 8 8 8 8
33 31 31 32 31 30 32 32 30 29 27 24 20 16 14 12 11 11 10 9 8 7 6 5 3 3 5 7 7 7 7 8 9 10 10 11 10 11 11 11 11 11
30 29 30 31 31 30 29 28 29 29 26 23 21 18 16 15 15 14 13 12 10 9 8 7 6 7 10 13 13 13 12 11 11 12 13 13 12 12 13 13 13 13
25 24 26 29 30 31 28 25 28 30 26 23 22 22 20 18 17 16 15 13 11 11 10 10 11 13 15 16 16 17 17 15 14 15 16 17 16 15 15 14 14 14
24 24 26 26 28 30 27 24 25 24 22 21 22 23 24 22 20 18 16 14 13 13 14 15 15 16 18 19 18 17 17 17 16 17 19 20 20 19 18 17 16 16
26 26 27 27 26 24 20 21 22 20 17 17 18 22 24 20 18 16 14 14 15 15 17 17 16 18 21 22 20 17 17 17 18 20 22 23 24 23 21 20 19 19
22 23 26 28 26 21 16 19 22 20 19 18 15 16 17 15 15 14 13 14 16 17 18 18 19 21 22 20 18 17 17 19 20 23 24 24 26 27 25 23 22 22
19 20 22 23 23 20 20 23 23 21 22 21 18 15 14 14 15 14 14 16 17 18 19 20 21 22 21 19 19 19 20 22 24 26 26 26 27 29 29 27 25 25
22 21 21 21 20 19 21 21 20 20 21 19 18 16 14 12 11 12 13 15 16 16 17 17 18 19 19 20 21 21 21 22 24 27 28 29 29 30 32 31 28 28
23 21 21 20 18 18 20 19 19 20 18 15 13 13 13 12 11 11 12 13 13 14 14 14 15 17 18 20 20 21 21 22 24 25 28 29 30 30 32 32 30 30
16 17 18 19 18 19 19 17 15 16 16 15 14 13 12 11 11 11 12 12 12 13 15 16 17 17 18 20 21 21 22 23 23 24 26 28 30 31 33 32 32 32
18 20 21 22 21 18 15 12 12 13 13 13 12 11 10 9 10 11 11 12 12 13 15 16 17 18 19 20 22 24 25 24 24 24 25 26 28 31 33 33 33 33
18 19 19 19 18 16 14 13 13 13 13 13 12 11 10 10 10 11 11 12 12 14 15 16 16 17 18 19 21 23 24 24 22 22 23 22 25 30 33 32 31 31
16 17 17 17 17 16 15 14 13 14 14 14 15 14 13 13 12 11 12 12 13 14 15 16 16 15 15 17 18 19 19 18 17 17 17 18 22 28 29 28 27 29
14 14 14 14 15 13 11 10 11 11 11 12 12 11 11 10 10 9 9 10 12 13 14 14 15 15 15 15 15 16 16 16 15 13 13 15 19 23 25 26 27 30
13 13 12 12 12 10 8 7 7 7 8 9 9 9 9 8 8 8 10 12 12 13 14 15 16 17 16 14 13 14 14 14 13 12 12 14 16 19 22 24 25 26
12 12 11 10 10 9 8 7 6 6 7 8 8 8 9 10 10 10 11 13 14 15 16 17 18 18 18 16 15 14 13 12 12 12 12 14 16 19 22 24 24 23
10 10 9 9 9 9 9 8 8 9 9 9 8 7 9 10 11 12 13 13 14 17 18 19 20 20 19 19 17 16 15 14 13 13 14 15 17 19 21 23 24 24
Wind_Direction
197 206 209 209 203 189 172 159 147 135 127 121 118 118 119 120 121 123 123 118 114 109 103 98 93 94 97 94 89 84 79 75 74 79 81 81 89 92 88 89 109 201
201 208 211 211 207 193 173 162 151 138 133 128 123 120 118 119 119 118 118 115 113 110 101 96 95 97 96 89 81 74 69 64 63 69 73 74 80 84 89 92 87 81
204 207 210 214 212 195 176 168 159 147 143 140 133 128 121 119 118 116 116 113 111 110 101 92 89 92 93 87 76 63 59 58 59 62 63 68 75 76 85 91 83 76
207 208 211 215 217 202 184 176 170 162 159 154 145 138 129 123 117 111 111 112 110 108 103 95 86 82 84 84 75 58 53 52 55 62 64 70 74 68 73 85 82 75
210 210 212 216 220 211 199 189 182 177 175 169 160 152 141 132 125 111 104 105 106 105 102 101 100 93 84 80 76 58 48 45 45 60 67 66 72 71 68 74 75 72
210 208 212 214 216 214 207 201 194 190 188 184 177 169 155 144 138 128 117 109 105 102 95 92 95 93 72 61 62 43 31 25 9 18 37 29 24 242 235 307 330 293
212 210 211 211 212 213 212 207 203 201 199 196 190 184 173 161 155 149 142 131 121 116 107 100 95 83 61 34 17 2 348 332 323 321 315 299 279 263 259 269 273 267
211 210 210 209 208 210 212 212 211 208 206 204 200 196 191 180 173 171 170 165 161 163 148 124 107 90 68 36 11 356 342 329 319 312 303 291 282 274 266 270 275 273
208 208 210 209 207 208 210 210 211 210 210 210 207 204 203 202 198 195 193 194 198 207 203 186 171 171 333 331 325 317 313 311 310 308 304 298 293 290 282 278 279 279
206 205 207 206 206 209 210 208 210 212 211 210 211 211 209 208 208 206 206 210 219 229 232 234 246 277 299 300 297 295 293 293 295 296 296 296 293 292 289 287 287 283
202 205 209 208 208 212 217 213 209 211 214 213 214 216 216 213 211 211 216 224 235 247 254 261 269 281 295 296 292 290 289 287 286 285 286 288 286 285 285 287 289 285
201 209 214 214 213 217 224 221 212 212 216 216 215 211 210 213 217 221 227 234 246 259 265 273 282 289 294 294 290 289 286 280 278 279 281 282 281 280 279 279 283 282
199 202 205 211 214 216 218 217 216 219 215 214 217 212 206 205 210 220 232 243 256 270 278 286 290 289 291 288 281 278 276 273 273 276 276 277 278 278 275 273 274 274
201 207 210 212 212 210 207 202 207 217 220 224 229 217 208 206 210 219 233 249 265 279 283 284 280 279 284 283 274 267 267 271 275 276 271 269 273 275 274 271 270 270
201 210 213 213 209 208 209 205 208 216 222 231 230 214 215 233 241 238 236 244 260 272 272 269 268 272 279 277 268 265 267 268 270 272 268 264 267 270 270 269 267 266
215 213 213 218 220 219 219 218 220 219 216 218 223 224 235 249 248 242 236 241 254 262 263 263 264 267 271 268 264 266 269 268 268 269 267 264 263 264 265 264 263 263
224 225 225 230 230 222 217 212 205 201 204 214 225 231 231 225 223 231 237 246 256 260 262 263 261 259 260 261 263 265 267 269 269 268 266 264 263 262 260 258 257 259
227 227 225 227 222 211 209 205 194 194 206 216 215 214 216 219 228 240 246 253 259 260 260 257 253 252 253 255 259 262 264 266 267 267 266 265 264 262 256 251 253 257
192 186 190 196 191 186 193 200 201 207 216 215 208 212 223 232 237 240 243 249 254 257 258 256 254 255 256 257 260 261 262 263 264 266 267 265 264 261 254 249 251 254
161 167 175 182 183 185 192 194 193 197 200 202 208 221 232 234 234 237 243 251 256 258 260 260 261 263 264 265 266 266 266 265 264 266 267 267 265 260 255 253 254 254
169 174 178 180 183 188 188 184 185 192 199 204 208 213 217 220 227 236 246 254 261 264 265 267 269 271 273 274 274 273 272 271 270 270 271 270 263 257 255 255 252 249
176 180 183 185 188 190 191 195 203 209 214 218 219 220 223 225 231 241 250 256 261 266 270 274 277 281 285 286 285 284 282 279 277 277 276 271 262 255 252 249 243 240
195 195 197 198 200 204 207 208 206 205 210 216 218 221 227 234 244 255 263 269 273 275 278 281 286 293 298 300 298 296 295 292 291 292 288 278 265 255 247 240 233 235
211 211 214 215 218 217 210 201 197 199 206 208 207 211 221 234 249 260 270 278 282 284 285 286 291 298 301 303 306 307 306 303 299 298 293 279 264 251 241 234 229 231
218 222 225 222 218 210 204 211 230 238 232 223 220 225 231 237 245 253 263 272 277 281 284 286 290 295 297 297 301 307 310 306 295 285 278 269 257 244 236 232 232 238
202 210 214 209 205 205 212 231 248 251 245 243 247 255 256 255 254 254 257 264 269 273 277 281 285 288 290 291 292 297 303 304 293 279 270 266 260 253 247 245 246 251